GW0353 Weather Reports


Display with metric or nautical units.
time (UTC)temp
F
wind
direction
speed
MPH
gust
MPH
rain 1hr
in
rain 24hr
in
rain mn
in
humidity
%
barometer
mb
20260508044603 56 0 0.0 4.0 0.00 0.00 0.00 62 1025.7
20260508044058 56 0 1.0 4.0 0.00 0.00 0.00 62 1025.5
20260508043557 56 0 1.0 4.0 0.00 0.00 0.00 61 1025.7
20260508043100 57 0 0.0 5.0 0.00 0.00 0.00 59 1025.5
20260508042559 57 58 0.0 5.0 0.00 0.00 0.00 58 1025.5
20260508042057 57 174 1.0 9.0 0.00 0.00 0.00 58 1025.3
20260508041557 58 0 3.0 9.0 0.00 0.00 0.00 58 1025.2
20260508041057 58 83 0.0 4.0 0.00 0.00 0.00 57 1025.1
20260508040557 58 233 0.0 4.0 0.00 0.00 0.00 56 1025.1
20260508040101 58 54 2.0 4.0 0.00 0.00 0.00 55 1024.8
20260508035556 58 137 0.0 5.0 0.00 0.00 0.00 56 1024.9
20260508035057 58 156 1.0 7.0 0.00 0.00 0.00 55 1024.7
20260508034555 58 112 3.0 7.0 0.00 0.00 0.00 53 1024.6
20260508034056 59 0 2.0 4.0 0.00 0.00 0.00 52 1024.5
20260508033557 59 178 0.0 4.0 0.00 0.00 0.00 51 1024.4
20260508033115 59 0 1.0 13.0 0.00 0.00 0.00 51 1024.2
20260508032555 59 58 6.0 13.0 0.00 0.00 0.00 50 1024.0
20260508032100 59 51 6.0 9.0 0.00 0.00 0.00 49 1023.9
20260508031556 59 150 1.0 2.0 0.00 0.00 0.00 44 1024.0
20260508031057 60 0 0.0 2.0 0.00 0.00 0.00 42 1023.8
20260508030557 60 0 0.0 2.0 0.00 0.00 0.00 42 1023.8
20260508030108 61 0 1.0 2.0 0.00 0.00 0.00 41 1023.7
20260508025557 62 0 0.0 2.0 0.00 0.00 0.00 40 1023.7
20260508025058 63 0 0.0 3.0 0.00 0.00 0.00 39 1023.6
20260508024619 63 0 0.0 4.0 0.00 0.00 0.00 39 1023.7
20260508024059 63 260 1.0 5.0 0.00 0.00 0.00 39 1023.6
20260508023556 64 109 0.0 6.0 0.00 0.00 0.00 39 1023.5
20260508023055 64 278 3.0 6.0 0.00 0.00 0.00 38 1023.5
20260508022559 64 271 1.0 6.0 0.00 0.00 0.00 37 1023.4
20260508022056 65 294 1.0 5.0 0.00 0.00 0.00 38 1023.3
20260508021558 65 286 1.0 6.0 0.00 0.00 0.00 38 1023.3
20260508021056 65 257 0.0 6.0 0.00 0.00 0.00 37 1023.3
20260508020557 66 260 0.0 6.0 0.00 0.00 0.00 37 1023.3
20260508020111 66 271 1.0 6.0 0.00 0.00 0.00 36 1023.2
20260508015558 67 48 1.0 6.0 0.00 0.00 0.00 35 1023.2
20260508015100 67 0 0.0 6.0 0.00 0.00 0.00 35 1023.2
20260508014613 67 52 1.0 7.0 0.00 0.00 0.00 35 1023.2
20260508014058 68 108 2.0 7.0 0.00 0.00 0.00 34 1023.2
20260508013557 69 0 1.0 6.0 0.00 0.00 0.00 33 1023.2
20260508013107 70 232 2.0 6.0 0.00 0.00 0.00 31 1023.1
20260508012557 70 117 0.0 5.0 0.00 0.00 0.00 32 1023.3
20260508012057 70 16 1.0 7.0 0.00 0.00 0.00 31 1023.3
20260508011603 70 0 0.0 7.0 0.00 0.00 0.00 31 1023.3
20260508011102 71 45 2.0 8.0 0.00 0.00 0.00 31 1023.2
20260508010557 71 34 2.0 11.0 0.00 0.00 0.00 31 1023.1
20260508010105 71 250 1.0 12.0 0.00 0.00 0.00 31 1023.2
20260508005557 71 266 2.0 13.0 0.00 0.00 0.00 31 1023.1
20260508005057 71 207 2.0 13.0 0.00 0.00 0.00 30 1023.1
20260508004556 72 238 2.0 13.0 0.00 0.00 0.00 30 1023.1
20260508004057 72 255 4.0 8.0 0.00 0.00 0.00 30 1023.1
20260508003556 72 290 0.0 7.0 0.00 0.00 0.00 30 1023.1
20260508003057 72 266 1.0 8.0 0.00 0.00 0.00 28 1023.1
20260508002556 73 33 2.0 11.0 0.00 0.00 0.00 28 1023.1
20260508002056 73 351 3.0 11.0 0.00 0.00 0.00 29 1023.0
20260508001559 73 117 3.0 11.0 0.00 0.00 0.00 28 1023.1
20260508001056 74 34 3.0 10.0 0.00 0.00 0.00 28 1023.1
20260508000558 74 226 2.0 14.0 0.00 0.00 0.00 27 1023.0
20260508000057 74 219 1.0 14.0 0.00 0.00 0.00 27 1022.9
20260507235557 75 101 2.0 9.0 0.00 0.00 0.00 27 1022.9
20260507235057 75 198 1.0 9.0 0.00 0.00 0.00 27 1022.9
20260507234557 75 275 2.0 7.0 0.00 0.00 0.00 24 1022.8
20260507234057 75 0 2.0 7.0 0.00 0.00 0.00 24 1022.8
20260507233557 75 233 1.0 5.0 0.00 0.00 0.00 22 1022.6
20260507233055 75 0 0.0 6.0 0.00 0.00 0.00 23 1022.9
20260507232556 75 252 1.0 11.0 0.00 0.00 0.00 23 1022.7
20260507232056 75 273 2.0 11.0 0.00 0.00 0.00 23 1023.0
20260507231557 75 117 3.0 11.0 0.00 0.00 0.00 24 1022.9
20260507231059 75 0 1.0 10.0 0.00 0.00 0.00 23 1023.0
20260507230559 75 299 2.0 10.0 0.00 0.00 0.00 20 1023.0
20260507230057 76 137 3.0 10.0 0.00 0.00 0.00 21 1023.1
20260507225557 75 72 2.0 8.0 0.00 0.00 0.00 22 1023.0
20260507225055 75 0 0.0 7.0 0.00 0.00 0.00 19 1023.2
20260507224602 75 224 2.0 7.0 0.00 0.00 0.00 21 1023.1
20260507224057 75 338 2.0 6.0 0.00 0.00 0.00 19 1023.1
20260507223557 75 19 1.0 10.0 0.00 0.00 0.00 21 1023.4
20260507223058 75 247 1.0 10.0 0.00 0.00 0.00 19 1023.5
20260507222559 74 227 2.0 7.0 0.00 0.00 0.00 20 1023.5
20260507222059 75 38 0.0 4.0 0.00 0.00 0.00 17 1023.5
20260507221559 75 155 1.0 4.0 0.00 0.00 0.00 18 1023.5
20260507221059 74 154 1.0 9.0 0.00 0.00 0.00 19 1023.5
20260507220558 75 74 1.0 9.0 0.00 0.00 0.00 18 1023.6
20260507220059 75 171 1.0 5.0 0.00 0.00 0.00 17 1023.7
20260507215559 76 257 1.0 5.0 0.00 0.00 0.00 16 1023.7
20260507215059 76 100 1.0 6.0 0.00 0.00 0.00 18 1023.9
20260507214557 75 214 3.0 6.0 0.00 0.00 0.00 17 1023.8
20260507214100 76 207 0.0 6.0 0.00 0.00 0.00 18 1024.0
20260507213601 76 134 2.0 10.0 0.00 0.00 0.00 18 1023.9
20260507213101 76 229 2.0 10.0 0.00 0.00 0.00 18 1024.0
20260507212558 75 198 4.0 9.0 0.00 0.00 0.00 18 1024.0
20260507212058 75 169 3.0 9.0 0.00 0.00 0.00 18 1024.0
20260507211558 75 146 3.0 14.0 0.00 0.00 0.00 17 1024.1
20260507211058 76 157 4.0 14.0 0.00 0.00 0.00 16 1024.1
20260507210602 76 242 5.0 14.0 0.00 0.00 0.00 18 1024.1
20260507210057 76 243 2.0 10.0 0.00 0.00 0.00 17 1024.2
20260507205559 76 176 4.0 10.0 0.00 0.00 0.00 18 1024.1
20260507205059 77 160 1.0 10.0 0.00 0.00 0.00 17 1024.2
20260507204559 76 250 5.0 10.0 0.00 0.00 0.00 18 1024.2
20260507204056 77 143 3.0 8.0 0.00 0.00 0.00 18 1024.3
20260507203559 76 279 3.0 8.0 0.00 0.00 0.00 18 1024.3
20260507203102 76 25 3.0 8.0 0.00 0.00 0.00 19 1024.4
20260507202558 76 243 2.0 7.0 0.00 0.00 0.00 15 1024.4
20260507202058 76 229 3.0 9.0 0.00 0.00 0.00 17 1024.5
20260507201558 76 196 3.0 9.0 0.00 0.00 0.00 17 1024.6
20260507201059 76 161 3.0 8.0 0.00 0.00 0.00 18 1024.6
20260507200600 76 274 2.0 7.0 0.00 0.00 0.00 17 1024.7
20260507200058 75 0 1.0 8.0 0.00 0.00 0.00 15 1024.7
20260507195558 75 227 1.0 8.0 0.00 0.00 0.00 16 1024.7
20260507195058 74 140 2.0 8.0 0.00 0.00 0.00 18 1024.7
20260507194613 74 58 2.0 8.0 0.00 0.00 0.00 17 1024.8
20260507194056 74 16 2.0 8.0 0.00 0.00 0.00 17 1024.7
20260507193557 72 67 2.0 8.0 0.00 0.00 0.00 18 1024.8
20260507193100 74 65 2.0 8.0 0.00 0.00 0.00 16 1025.0
20260507192559 75 134 1.0 4.0 0.00 0.00 0.00 17 1025.1
20260507192059 74 319 1.0 4.0 0.00 0.00 0.00 18 1025.2
20260507191604 74 305 1.0 6.0 0.00 0.00 0.00 17 1025.2
20260507191059 72 316 3.0 9.0 0.00 0.00 0.00 17 1025.2
20260507190559 72 326 3.0 9.0 0.00 0.00 0.00 18 1025.1
20260507185559 72 12 2.0 6.0 0.00 0.00 0.00 19 1025.4
20260507185058 71 302 1.0 6.0 0.00 0.00 0.00 20 1025.5
20260507184559 70 49 3.0 8.0 0.00 0.00 0.00 19 1025.6
20260507184059 70 90 3.0 8.0 0.00 0.00 0.00 21 1025.6
20260507183602 71 342 2.0 6.0 0.00 0.00 0.00 19 1025.7
20260507183106 70 16 2.0 4.0 0.00 0.00 0.00 19 1025.7
20260507182558 69 40 2.0 6.0 0.00 0.00 0.00 18 1025.6
20260507182058 69 60 1.0 6.0 0.00 0.00 0.00 17 1025.6
20260507181558 68 50 3.0 6.0 0.00 0.00 0.00 18 1025.8
20260507181058 69 355 3.0 6.0 0.00 0.00 0.00 21 1026.0
20260507180559 68 55 3.0 10.0 0.00 0.00 0.00 22 1026.0
20260507180059 67 47 2.0 10.0 0.00 0.00 0.00 23 1026.1
20260507175556 67 75 2.0 10.0 0.00 0.00 0.00 20 1026.0
20260507175059 66 67 3.0 7.0 0.00 0.00 0.00 24 1026.0
20260507174556 66 45 2.0 6.0 0.00 0.00 0.00 21 1026.0
20260507174058 66 50 2.0 6.0 0.00 0.00 0.00 22 1026.2
20260507173558 65 94 2.0 5.0 0.00 0.00 0.00 26 1026.2
20260507173109 64 358 3.0 5.0 0.00 0.00 0.00 27 1026.2
20260507172602 64 46 3.0 5.0 0.00 0.00 0.00 26 1026.2
20260507172058 64 51 3.0 4.0 0.00 0.00 0.00 32 1026.2
20260507171559 65 338 2.0 5.0 0.00 0.00 0.00 33 1026.2
20260507171058 65 49 2.0 5.0 0.00 0.00 0.00 35 1026.2
20260507170558 63 79 1.0 4.0 0.00 0.00 0.00 33 1026.2
20260507165558 62 49 2.0 3.0 0.00 0.00 0.00 35 1026.2
20260507165058 61 45 2.0 4.0 0.00 0.00 0.00 39 1026.2
20260507164557 60 57 3.0 4.0 0.00 0.00 0.00 39 1026.3
20260507164058 60 74 1.0 4.0 0.00 0.00 0.00 39 1026.2
20260507163558 59 58 2.0 4.0 0.00 0.00 0.00 41 1026.3
20260507163100 60 36 1.0 4.0 0.00 0.00 0.00 41 1026.3
20260507162558 59 322 1.0 3.0 0.00 0.00 0.00 41 1026.4
20260507162101 58 48 1.0 3.0 0.00 0.00 0.00 45 1026.5
20260507161600 57 13 0.0 4.0 0.00 0.00 0.00 47 1026.4
20260507161058 56 0 1.0 4.0 0.00 0.00 0.00 45 1026.4
20260507160559 55 0 1.0 4.0 0.00 0.00 0.00 47 1026.4
20260507160057 53 91 2.0 4.0 0.00 0.00 0.00 48 1026.5
20260507155558 53 86 1.0 3.0 0.00 0.00 0.00 49 1026.5
20260507155101 52 97 1.0 3.0 0.00 0.00 0.00 50 1026.7
20260507154559 51 92 1.0 3.0 0.00 0.00 0.00 52 1026.8
20260507154058 51 77 1.0 4.0 0.00 0.00 0.00 56 1026.9
20260507153557 51 32 2.0 4.0 0.00 0.00 0.00 56 1026.9
20260507153108 50 351 1.0 3.0 0.00 0.00 0.00 58 1026.9
20260507152558 49 27 1.0 3.0 0.00 0.00 0.00 59 1027.0
20260507152057 48 84 1.0 2.0 0.00 0.00 0.00 61 1027.0
20260507151558 48 60 0.0 2.0 0.00 0.00 0.00 62 1027.0
20260507151059 47 103 1.0 2.0 0.00 0.00 0.00 62 1027.0
20260507150558 47 0 0.0 0.0 0.00 0.00 0.00 66 1027.1
20260507150109 46 0 0.0 0.0 0.00 0.00 0.00 67 1027.1
20260507145558 46 0 0.0 1.0 0.00 0.00 0.00 69 1027.1
20260507145058 45 0 0.0 1.0 0.00 0.00 0.00 71 1027.2
20260507144559 45 0 0.0 1.0 0.00 0.00 0.00 71 1027.2
20260507144059 44 0 0.0 1.0 0.00 0.00 0.00 71 1027.1
20260507143558 43 0 0.0 1.0 0.00 0.00 0.00 72 1027.2
20260507143107 43 0 0.0 1.0 0.00 0.00 0.00 73 1027.2
20260507142558 42 0 0.0 1.0 0.00 0.00 0.00 73 1027.2
20260507142057 42 56 0.0 0.0 0.00 0.00 0.00 73 1027.2
20260507141559 42 0 0.0 1.0 0.00 0.00 0.00 75 1027.3
20260507141058 40 0 0.0 1.0 0.00 0.00 0.00 77 1027.1
20260507140555 39 0 0.0 1.0 0.00 0.00 0.00 78 1027.2
20260507135557 36 141 0.0 0.0 0.00 0.00 0.00 82 1027.1
20260507135057 35 0 0.0 2.0 0.00 0.00 0.00 84 1027.1
20260507134601 33 0 0.0 2.0 0.00 0.00 0.00 84 1027.3
20260507134058 32 0 1.0 2.0 0.00 0.00 0.00 84 1027.1
20260507133558 32 174 0.0 0.0 0.00 0.00 0.00 83 1027.1
20260507133100 32 0 0.0 0.0 0.00 0.00 0.00 82 1027.1
20260507132555 33 0 0.0 2.0 0.00 0.00 0.00 83 1026.8
20260507132055 32 0 0.0 2.0 0.00 0.00 0.00 83 1026.7
20260507131557 32 0 1.0 2.0 0.00 0.00 0.00 82 1026.6
20260507131056 33 0 0.0 0.0 0.00 0.00 0.00 82 1026.8
20260507130556 33 0 0.0 0.0 0.00 0.00 0.00 82 1026.7
20260507130105 33 0 0.0 1.0 0.00 0.00 0.00 83 1026.7
20260507125557 32 0 0.0 1.0 0.00 0.00 0.00 83 1026.7
20260507125058 32 0 0.0 1.0 0.00 0.00 0.00 83 1026.6
20260507124600 33 0 0.0 1.0 0.00 0.00 0.00 82 1026.7
20260507124056 33 0 0.0 0.0 0.00 0.00 0.00 82 1026.6
20260507123556 33 0 0.0 0.0 0.00 0.00 0.00 82 1026.5
20260507123059 34 0 0.0 0.0 0.00 0.00 0.00 83 1026.7
20260507122556 34 0 0.0 1.0 0.00 0.00 0.00 81 1026.7
20260507122056 34 0 0.0 1.0 0.00 0.00 0.00 82 1026.7
20260507121601 34 189 0.0 1.0 0.00 0.00 0.00 81 1026.7
20260507121059 34 0 0.0 1.0 0.00 0.00 0.00 80 1026.7
20260507120556 35 0 0.0 1.0 0.00 0.00 0.00 81 1026.8
20260507120058 35 0 0.0 1.0 0.00 0.00 0.00 81 1026.8
20260507115556 35 195 0.0 1.0 0.00 0.00 0.00 81 1026.7
20260507115056 34 196 0.0 2.0 0.00 0.00 0.00 83 1026.7
20260507114600 34 183 0.0 2.0 0.00 0.00 0.00 80 1026.7
20260507114056 34 179 0.0 0.0 0.00 0.00 0.00 80 1026.7
20260507113559 35 0 0.0 0.0 0.00 0.00 0.00 79 1026.7
20260507113059 35 0 0.0 0.0 0.00 0.00 0.00 81 1026.8
20260507112559 35 0 0.0 1.0 0.00 0.00 0.00 81 1026.8
20260507112059 35 0 0.0 1.0 0.00 0.00 0.00 78 1026.8
20260507111559 34 0 0.0 1.0 0.00 0.00 0.00 77 1026.9
20260507111057 35 0 0.0 0.0 0.00 0.00 0.00 76 1026.9
20260507110558 35 0 0.0 0.0 0.00 0.00 0.00 79 1026.9
20260507110103 36 0 0.0 0.0 0.00 0.00 0.00 77 1026.8
20260507105558 36 0 0.0 1.0 0.00 0.00 0.00 78 1026.8
20260507105057 36 0 0.0 2.0 0.00 0.00 0.00 75 1026.9
20260507104603 36 205 0.0 2.0 0.00 0.00 0.00 74 1026.8
20260507104056 36 0 0.0 0.0 0.00 0.00 0.00 74 1026.9
20260507103558 36 0 0.0 0.0 0.00 0.00 0.00 73 1027.0
20260507103129 37 0 0.0 2.0 0.00 0.00 0.00 72 1026.9
20260507102558 37 0 0.0 2.0 0.00 0.00 0.00 71 1026.9
20260507102058 38 0 0.0 1.0 0.00 0.00 0.00 70 1026.8
20260507101556 38 0 0.0 1.0 0.00 0.00 0.00 71 1026.9
20260507101100 38 0 0.0 1.0 0.00 0.00 0.00 73 1026.9
20260507100557 37 0 0.0 3.0 0.00 0.00 0.00 73 1026.9
20260507100110 37 173 0.0 3.0 0.00 0.00 0.00 73 1027.0
20260507095558 37 184 0.0 2.0 0.00 0.00 0.00 73 1027.0
20260507095057 37 0 0.0 1.0 0.00 0.00 0.00 74 1027.1
20260507094601 37 184 0.0 1.0 0.00 0.00 0.00 74 1027.1
20260507094058 37 0 0.0 1.0 0.00 0.00 0.00 74 1027.2
20260507093558 37 0 0.0 1.0 0.00 0.00 0.00 74 1027.2
20260507093102 38 0 0.0 0.0 0.00 0.00 0.00 74 1027.3
20260507092557 38 0 0.0 0.0 0.00 0.00 0.00 74 1027.3
20260507092058 38 0 0.0 0.0 0.00 0.00 0.00 74 1027.4
20260507091600 39 0 0.0 0.0 0.00 0.00 0.00 74 1027.7
20260507091058 39 0 0.0 1.0 0.00 0.00 0.00 74 1027.6
20260507090558 39 0 0.0 1.0 0.00 0.00 0.00 74 1027.6
20260507085558 39 0 0.0 2.0 0.00 0.00 0.00 75 1027.6
20260507085059 39 203 0.0 1.0 0.00 0.00 0.00 73 1027.6
20260507084606 40 0 0.0 0.0 0.00 0.00 0.00 72 1027.6
20260507084057 40 0 0.0 1.0 0.00 0.00 0.00 73 1027.5
20260507083558 40 0 0.0 1.0 0.00 0.00 0.00 73 1027.6
20260507083100 40 0 0.0 2.0 0.00 0.00 0.00 73 1027.6
20260507082557 40 0 0.0 2.0 0.00 0.00 0.00 73 1027.6
20260507082059 40 0 1.0 2.0 0.00 0.00 0.00 73 1027.5
20260507081601 40 186 0.0 2.0 0.00 0.00 0.00 71 1027.6
20260507081058 41 0 0.0 0.0 0.00 0.00 0.00 71 1027.5
20260507080558 41 0 0.0 0.0 0.00 0.00 0.00 71 1027.5
20260507080058 42 0 0.0 0.0 0.00 0.00 0.00 70 1027.5
20260507075601 42 0 0.0 2.0 0.00 0.00 0.00 71 1027.5
20260507075102 42 175 0.0 2.0 0.00 0.00 0.00 69 1027.5
20260507074608 42 206 0.0 2.0 0.00 0.00 0.00 68 1027.5
20260507074059 42 0 0.0 2.0 0.00 0.00 0.00 68 1027.7
20260507073558 43 0 0.0 2.0 0.00 0.00 0.00 67 1027.6
20260507073055 43 0 0.0 2.0 0.00 0.00 0.00 67 1027.6
20260507072559 43 0 0.0 0.0 0.00 0.00 0.00 66 1027.6
20260507072058 43 0 0.0 0.0 0.00 0.00 0.00 66 1027.7
20260507071606 43 0 0.0 1.0 0.00 0.00 0.00 64 1027.6
20260507071059 43 0 0.0 3.0 0.00 0.00 0.00 64 1027.5
20260507070559 43 190 0.0 3.0 0.00 0.00 0.00 63 1027.3
20260507070108 44 0 0.0 1.0 0.00 0.00 0.00 61 1027.3
20260507065558 44 229 0.0 1.0 0.00 0.00 0.00 64 1027.4
20260507065058 44 0 0.0 2.0 0.00 0.00 0.00 61 1027.3
20260507064602 44 169 0.0 2.0 0.00 0.00 0.00 61 1027.3
20260507064102 44 229 1.0 2.0 0.00 0.00 0.00 62 1027.3
20260507063557 45 0 0.0 1.0 0.00 0.00 0.00 63 1027.2
20260507063109 45 0 0.0 1.0 0.00 0.00 0.00 66 1027.1
20260507062600 45 0 0.0 1.0 0.00 0.00 0.00 59 1026.9
20260507062057 46 0 0.0 1.0 0.00 0.00 0.00 61 1026.8
20260507061559 46 0 0.0 2.0 0.00 0.00 0.00 61 1026.8
20260507061057 46 0 0.0 2.0 0.00 0.00 0.00 58 1026.8
20260507060558 46 0 0.0 1.0 0.00 0.00 0.00 56 1026.8
20260507060104 45 0 0.0 1.0 0.00 0.00 0.00 57 1026.9
20260507055558 45 0 0.0 1.0 0.00 0.00 0.00 58 1026.8
20260507055059 45 0 0.0 2.0 0.00 0.00 0.00 57 1026.9
20260507054616 46 0 0.0 4.0 0.00 0.00 0.00 56 1026.9
20260507054058 46 0 1.0 4.0 0.00 0.00 0.00 57 1026.9
20260507053600 46 245 1.0 3.0 0.00 0.00 0.00 55 1027.0
20260507053112 47 204 0.0 0.0 0.00 0.00 0.00 58 1026.9
20260507052558 47 0 0.0 1.0 0.00 0.00 0.00 54 1026.9
20260507052059 47 0 0.0 1.0 0.00 0.00 0.00 51 1026.7
20260507051600 47 0 0.0 1.0 0.00 0.00 0.00 50 1026.7
20260507051057 48 0 0.0 1.0 0.00 0.00 0.00 51 1026.6
20260507050557 49 0 0.0 0.0 0.00 0.00 0.00 50 1026.5
20260507050100 49 0 0.0 1.0 0.00 0.00 0.00 50 1026.5
20260507045558 49 0 0.0 1.0 0.00 0.00 0.00 50 1026.4
20260507045058 49 0 0.0 2.0 0.00 0.00 0.00 49 1026.5